Location: Gro�sch�nbrunn
(49.5760°N, 11.8868°E)
Time: 07:08:05
(UTC+00:00)

ATLAS 3B R/B - Pass Details

Date: 18 September 2020
Orbit: 1016 x 1179 km, 63.8° (Epoch: 04 October)

Event Time Altitude Azimuth Distance (km) Brightness Sun altitude
Rises 21:21:57 0° 317° (NW) 3,834 6.6 -34.3°
Reaches altitude 10° 21:24:34 10° 313° (NW) 2,897 5.7 -34.5°
Enters shadow 21:30:03 51° 275° (W) 1,343 3.2 -35.0°
